Flag for U.S.A. Weather past 2 weeks in Burbank, California, U.S.A.

Now
70 °F

Sunny.


Feels Like: 77 °F
Forecast: 56 / 75 °F
Wind: No wind

Location: Burbank-Glendale-Pasadena Airport

Current Time: Jan 29, 2015 at 12:36:50 PM

Latest Report: Jan 29, 2015 at 11:53 AM


Visibility: 10 mi

Pressure: 30.00 "Hg

Humidity: 34%

Dew point: 40 °F

Location of BurbankLocation

Historic Weather in Burbank — Graph

°F

Burbank temperature yesterday

Maximum temperature yesterday: 72 °F (at 1:53 PM)
Minimum temperature yesterday: 53 °F (at 1:53 AM)
Average temperature yesterday: 63 °F

Past Weeks' High & Low Weather Summary

 TemperatureHumidityPressure
High81 °F (Jan 24, 2:53 PM)100% (Jan 20, 8:53 AM)30.26 "Hg (Jan 20, 8:53 AM)
Low44 °F (Jan 23, 6:53 AM)10% (Jan 22, 11:53 AM)29.88 "Hg (Jan 20, 1:53 PM)
Average61 °F45%30.08 "Hg
* Reported Jan 14 10:53 AM — Jan 29 10:53 AM, Burbank, Weather by CustomWeather, © 2014

Note: Actual official high and low records may vary slightly from our data, if they occured in-between our weather recording intervals... More about our weather records

Advertising

Burbank weather history for previous 24 hours

 ConditionsComfort  
Time TempWeatherWind HumidityBarometerVisibility
10:53 AM
Jan 29
67 °FSunny.5 mph42%30.03 "Hg10 mi
9:53 AM64 °FSunny.No wind47%30.04 "Hg10 mi
8:53 AM62 °FSunny.No wind50%30.03 "Hg10 mi
7:53 AM59 °FSunny.No wind56%30.02 "Hg10 mi
6:53 AM58 °FSunny.No wind58%30.01 "Hg10 mi
5:53 AM60 °FClear.No wind56%29.99 "Hg10 mi
4:53 AM58 °FClear.6 mph60%29.99 "Hg10 mi
3:53 AM60 °FClear.5 mph47%30.01 "Hg10 mi
2:53 AM60 °FClear.No wind56%30.03 "Hg10 mi
1:53 AM61 °FClear.3 mph54%30.02 "Hg10 mi
12:53 AM60 °FClear.No wind58%30.02 "Hg10 mi
11:53 PM
Jan 28
63 °FClear.5 mph45%30.03 "Hg10 mi
10:53 PM62 °FClear.No wind52%30.05 "Hg10 mi
9:53 PM64 °FClear.6 mph47%30.06 "Hg10 mi
8:53 PM65 °FClear.No wind47%30.07 "Hg10 mi
7:53 PM66 °FClear.3 mph47%30.06 "Hg10 mi
6:53 PM67 °FClear.5 mph45%30.06 "Hg10 mi
5:53 PM68 °FClear.5 mph42%30.05 "Hg10 mi
4:53 PM70 °FSunny.No wind44%30.04 "Hg10 mi
3:53 PM71 °FSunny.3 mph39%30.05 "Hg10 mi
2:53 PM72 °FSunny.5 mph31%30.05 "Hg10 mi
1:53 PM72 °FSunny.5 mph29%30.04 "Hg10 mi
12:53 PM71 °FSunny.No wind31%30.05 "Hg10 mi
Weather by CustomWeather, © 2014

See weather overviewHow to use our weather pages